Tracking 19846 objects as of 19-Sep-2019
HD Live streaming from Space Station
objects crossing your sky now

N-1 R/B

Track N-1 R/B now!
10-day predictions


NORAD ID: 10675
Int'l Code: 1978-018B
Perigee: 977.0 km
Apogee: 1,221.3 km
Inclination: 69.4 °
Period: 107.1 minutes
Semi major axis: 7470 km
RCS: 1.3828 m2 (large)
Launch date: February 16, 1978
Source: Japan (JPN)
Launch site: TANEGASHIMA SPACE CENTER (TNSTA)

Note: This is a ROCKET BODY
aabbcc
Your satellite tracking list
Your tracking list is empty




NASA's NSSDC Master Catalog

Two Line Element Set (TLE):
1 10675U 78018B   19262.16056861 -.00000051  00000-0  64348-6 0  9994
2 10675  69.3571 136.0445 0163536 250.0536 260.6836 13.44657415 41130
Source of the keplerian elements: AFSPC